CW9887 Weather Reports


Display with metric or nautical units.
time (UTC)temp
F
wind
direction
speed
MPH
gust
MPH
rain 1hr
in
rain 24hr
in
rain mn
in
humidity
%
barometer
mb
20260510230020 61 269 4.0 0.0 0.00 0.00 0.26 63 1011.3
20260510224918 62 271 3.0 0.0 0.00 0.00 0.26 58 1010.8
20260510224529 61 321 3.0 0.0 0.00 0.00 0.26 62 1011.0
20260510223420 62 298 3.0 0.0 0.00 0.00 0.26 61 1010.6
20260510223058 62 281 4.0 0.0 0.00 0.00 0.26 61 1010.9
20260510221856 63 252 5.0 0.0 0.00 0.00 0.26 59 1010.3
20260510221534 63 258 5.0 0.0 0.00 0.00 0.26 60 1010.5
20260510220358 64 262 4.0 0.0 0.00 0.00 0.26 57 1010.1
20260510220010 64 248 4.0 0.0 0.00 0.00 0.26 61 1010.5
20260510214903 65 254 5.0 0.0 0.00 0.00 0.26 61 1010.1
20260510214547 65 258 5.0 0.0 0.00 0.00 0.26 61 1010.4
20260510213445 65 246 6.0 0.0 0.00 0.00 0.26 61 1009.9
20260510213422 65 272 6.0 0.0 0.00 0.00 0.26 62 1009.9
20260510213043 65 252 5.0 0.0 0.00 0.00 0.26 62 1010.4
20260510211940 65 236 5.0 0.0 0.00 0.00 0.26 64 1009.9
20260510211848 65 261 5.0 0.0 0.00 0.00 0.26 62 1010.0
20260510211547 65 278 5.0 0.0 0.00 0.00 0.26 65 1010.3
20260510210417 66 246 5.0 0.0 0.00 0.00 0.26 66 1010.0
20260510210108 65 261 5.0 0.0 0.00 0.00 0.26 67 1010.3
20260510204952 66 263 5.0 0.0 0.00 0.00 0.26 67 1009.8
20260510204909 66 282 5.0 0.0 0.00 0.00 0.26 68 1009.8
20260510204535 65 244 5.0 0.0 0.00 0.00 0.26 69 1010.3
20260510203432 66 259 5.0 0.0 0.00 0.00 0.26 73 1009.8
20260510203356 66 214 5.0 0.0 0.00 0.00 0.26 70 1009.8
20260510203012 65 272 5.0 0.0 0.00 0.00 0.26 71 1010.3
20260510201910 65 261 5.0 0.0 0.00 0.00 0.26 74 1009.8
20260510201601 65 271 5.0 0.0 0.00 0.00 0.26 74 1010.3
20260510200357 65 237 4.0 0.0 0.00 0.00 0.26 79 1009.8
20260510200032 64 255 4.0 0.0 0.00 0.00 0.26 77 1010.3
20260510194927 65 229 2.0 0.0 0.00 0.00 0.26 81 1010.1
20260510194854 65 289 2.0 0.0 0.00 0.00 0.26 81 1010.1
20260510194518 64 285 3.0 0.0 0.00 0.00 0.26 82 1010.5
20260510193018 62 225 2.0 0.0 0.00 0.00 0.26 87 1010.6
20260510191505 61 134 2.0 0.0 0.00 0.00 0.26 87 1010.7
20260510190001 60 15 2.0 0.0 0.00 0.00 0.26 88 1010.9
20260510184959 59 212 2.0 0.0 0.00 0.00 0.26 93 1010.5
20260510184944 60 190 2.0 0.0 0.00 0.00 0.26 92 1010.4
20260510184507 58 35 2.0 0.0 0.00 0.00 0.26 93 1011.1
20260510183404 58 166 2.0 0.0 0.00 0.00 0.26 94 1010.3
20260510183037 57 245 1.0 0.0 0.00 0.00 0.26 95 1010.9
20260510181547 56 64 2.0 0.0 0.00 0.00 0.26 97 1010.8
20260510180355 56 267 3.0 0.0 0.00 0.00 0.26 91 1010.6
20260510180141 56 257 3.0 0.0 0.00 0.00 0.26 89 1011.1
20260510174842 63 54 1.0 0.0 0.00 0.00 0.03 81 1010.0
20260510174602 63 55 1.0 0.0 0.00 0.00 0.02 78 1010.5
20260510173045 65 184 3.0 0.0 0.00 0.00 0.02 72 1010.6
20260510171841 64 151 3.0 0.0 0.00 0.00 0.02 79 1010.2
20260510171545 63 215 3.0 0.0 0.00 0.00 0.02 78 1010.8
20260510170341 63 140 3.0 0.0 0.00 0.00 0.02 80 1010.4
20260510170117 62 151 3.0 0.0 0.00 0.00 0.02 82 1010.9
20260510164554 61 93 3.0 0.0 0.00 0.00 0.02 83 1011.2
20260510163338 60 132 3.0 0.0 0.00 0.00 0.02 85 1010.8
20260510163019 59 126 3.0 0.0 0.00 0.00 0.02 85 1011.7
20260510161544 59 204 3.0 0.0 0.00 0.00 0.02 84 1011.7
20260510160354 60 150 2.0 0.0 0.00 0.00 0.02 87 1010.9
20260510160105 59 165 2.0 0.0 0.00 0.00 0.02 87 1011.7
20260510154853 59 142 3.0 0.0 0.00 0.00 0.02 87 1011.0
20260510154514 58 208 3.0 0.0 0.00 0.00 0.02 89 1011.7
20260510153053 57 214 2.0 0.0 0.00 0.00 0.02 93 1011.7
20260510151847 56 189 3.0 0.0 0.00 0.00 0.02 93 1011.2
20260510151533 55 183 3.0 0.0 0.00 0.00 0.02 93 1011.9
20260510150353 54 170 3.0 0.0 0.00 0.00 0.02 96 1011.2
20260510150014 53 181 3.0 0.0 0.00 0.00 0.02 97 1011.9
20260510144550 53 157 2.0 0.0 0.00 0.00 0.02 98 1011.9
20260510143346 52 180 3.0 0.0 0.00 0.00 0.02 100 1011.1
20260510143053 52 200 3.0 0.0 0.00 0.00 0.02 100 1011.9
20260510141846 52 246 3.0 0.0 0.00 0.00 0.01 100 1011.2
20260510141529 51 144 3.0 0.0 0.00 0.00 0.01 100 1012.0
20260510140347 52 308 2.0 0.0 0.00 0.00 0.01 100 1011.1
20260510140045 51 302 2.0 0.0 0.00 0.00 0.01 100 1011.9
20260510134842 51 174 1.0 0.0 0.00 0.00 0.01 100 1011.0
20260510134546 51 168 1.0 0.0 0.00 0.00 0.01 100 1011.7
20260510133343 51 176 2.0 0.0 0.00 0.00 0.01 100 1011.0
20260510133002 50 184 2.0 0.0 0.00 0.00 0.01 100 1011.8
20260510131858 50 207 2.0 0.0 0.00 0.00 0.01 100 1011.2
20260510131544 49 208 2.0 0.0 0.00 0.00 0.01 100 1011.9
20260510130338 49 189 2.0 0.0 0.00 0.00 0.01 100 1011.0
20260510130045 48 178 1.0 0.0 0.00 0.00 0.01 100 1011.8
20260510124839 48 213 1.0 0.0 0.00 0.00 0.01 100 1011.2
20260510124518 47 211 2.0 0.0 0.00 0.00 0.01 100 1011.9
20260510123058 47 184 1.0 0.0 0.00 0.00 0.01 100 1011.8
20260510121854 47 244 1.0 0.0 0.00 0.00 0.01 100 1010.9
20260510121539 46 190 1.0 0.0 0.00 0.00 0.01 100 1011.6
20260510120043 46 250 1.0 0.0 0.00 0.00 0.01 100 1011.8
20260510114840 46 260 1.0 0.0 0.00 0.00 0.01 100 1011.2
20260510114605 46 260 1.0 0.0 0.00 0.00 0.01 100 1011.9
20260510113050 45 263 2.0 0.0 0.00 0.00 0.01 100 1011.7
20260510111839 46 257 1.0 0.0 0.00 0.00 0.01 100 1010.7
20260510111601 46 257 1.0 0.0 0.00 0.00 0.01 100 1011.4
20260510110340 46 257 1.0 0.0 0.00 0.00 0.01 100 1010.7
20260510110058 45 257 2.0 0.0 0.00 0.00 0.01 100 1011.5
20260510104855 46 128 0.0 0.0 0.00 0.00 0.01 100 1010.3
20260510104606 45 105 0.0 0.0 0.00 0.00 0.01 100 1011.2
20260510103351 45 103 0.0 0.0 0.00 0.00 0.01 100 1009.9
20260510103050 45 103 0.0 0.0 0.00 0.00 0.01 100 1010.7
20260510101847 45 103 0.0 0.0 0.00 0.00 0.01 100 1010.1
20260510101529 45 103 0.0 0.0 0.00 0.00 0.01 100 1010.9
20260510100348 45 103 0.0 0.0 0.00 0.00 0.01 100 1010.0
20260510100010 44 103 0.0 0.0 0.00 0.00 0.01 100 1010.3
20260510094506 44 103 0.0 0.0 0.00 0.00 0.01 100 1010.6
20260510093043 44 103 1.0 0.0 0.00 0.00 0.01 100 1010.2
20260510091841 45 155 0.0 0.0 0.00 0.00 0.01 100 1009.7
20260510091553 44 155 0.0 0.0 0.00 0.00 0.01 100 1010.5
20260510090059 44 155 0.0 0.0 0.00 0.00 0.01 100 1010.6
20260510084844 45 155 0.0 0.0 0.00 0.00 0.01 100 1009.7
20260510084553 44 155 0.0 0.0 0.00 0.00 0.01 100 1010.5
20260510083339 45 156 0.0 0.0 0.00 0.00 0.01 100 1009.9
20260510083002 44 156 0.0 0.0 0.00 0.00 0.01 100 1010.8
20260510081545 44 156 1.0 0.0 0.00 0.00 0.01 100 1010.9
20260510080339 45 88 1.0 0.0 0.00 0.00 0.01 100 1009.7
20260510074855 45 71 3.0 0.0 0.00 0.00 0.01 100 1009.6
20260510074602 44 72 3.0 0.0 0.00 0.00 0.01 100 1010.2
20260510073355 45 81 1.0 0.0 0.00 0.00 0.01 100 1010.1
20260510073052 44 81 1.0 0.0 0.00 0.00 0.01 100 1010.9
20260510071850 45 81 0.0 0.0 0.00 0.00 0.01 100 1010.2
20260510071539 44 81 0.0 0.0 0.00 0.00 0.01 100 1011.0
20260510070350 45 81 0.0 0.0 0.00 0.00 0.00 100 1010.1
20260510070059 44 81 0.0 0.0 0.00 0.00 0.00 100 1010.9
20260510064850 45 81 0.0 0.0 0.00 0.00 0.00 100 1010.0
20260510064606 44 81 0.0 0.0 0.00 0.00 0.00 100 1010.7
20260510063345 45 81 0.0 0.0 0.00 0.00 0.00 100 1010.1
20260510063051 44 81 0.0 0.0 0.00 0.00 0.00 100 1010.9
20260510061846 45 81 0.0 0.0 0.00 0.00 0.00 100 1010.2
20260510061544 44 81 0.0 0.0 0.00 0.00 0.00 100 1011.0
20260510060347 44 81 1.0 0.0 0.00 0.00 0.00 100 1010.2
20260510060043 44 81 1.0 0.0 0.00 0.00 0.00 100 1011.0
20260510054839 44 81 2.0 0.0 0.00 0.00 0.00 100 1010.1
20260510054543 44 75 3.0 0.0 0.00 0.00 0.00 100 1010.9
20260510053340 44 77 1.0 0.0 0.00 0.00 0.00 100 1010.3
20260510053016 44 77 1.0 0.0 0.00 0.00 0.00 100 1011.3
20260510051538 44 77 1.0 0.0 0.00 0.00 0.00 100 1011.3
20260510050357 44 77 0.0 0.0 0.00 0.00 0.00 100 1010.6
20260510050112 44 77 0.0 0.0 0.00 0.00 0.00 100 1011.3
20260510050001 44 77 0.0 0.0 0.00 0.00 0.00 100 1011.4
20260510044857 44 77 0.0 0.0 0.00 0.00 0.00 100 1010.5
20260510044608 44 77 0.0 0.0 0.00 0.00 0.00 100 1011.4
20260510043353 44 77 0.0 0.0 0.00 0.00 0.00 100 1010.6
20260510043012 43 77 0.0 0.0 0.00 0.00 0.00 100 1011.4
20260510041536 43 77 1.0 0.0 0.00 0.00 0.00 100 1011.3
20260510040054 43 77 2.0 0.0 0.00 0.00 0.00 100 1011.4
20260510034852 44 73 2.0 0.0 0.00 0.00 0.48 100 1010.6
20260510034558 43 73 2.0 0.0 0.00 0.00 0.48 100 1011.4
20260510033349 44 101 0.0 0.0 0.00 0.00 0.48 100 1010.8
20260510033050 43 101 1.0 0.0 0.00 0.00 0.48 100 1011.9
20260510031847 44 101 1.0 0.0 0.00 0.00 0.48 100 1010.8
20260510031536 43 101 1.0 0.0 0.00 0.00 0.48 100 1011.7
20260510030349 43 101 1.0 0.0 0.00 0.00 0.47 100 1011.0
20260510030055 43 101 1.0 0.0 0.00 0.00 0.47 100 1011.9
20260510024842 43 98 3.0 0.0 0.00 0.00 0.47 99 1011.0
20260510024549 43 103 3.0 0.0 0.00 0.00 0.47 99 1011.8
20260510023342 44 104 2.0 0.0 0.00 0.00 0.47 99 1011.1
20260510023040 43 104 2.0 0.0 0.00 0.00 0.47 99 1011.9
20260510021839 43 104 2.0 0.0 0.00 0.00 0.47 99 1011.3
20260510021543 43 104 2.0 0.0 0.00 0.00 0.47 100 1012.2
20260510020341 43 97 3.0 0.0 0.00 0.00 0.47 99 1011.3
20260510020043 43 95 3.0 0.0 0.00 0.00 0.47 99 1012.2
20260510014841 44 96 2.0 0.0 0.00 0.00 0.47 99 1011.5
20260510014541 43 96 2.0 0.0 0.00 0.00 0.47 99 1012.3
20260510013339 44 91 1.0 0.0 0.00 0.00 0.47 99 1011.4
20260510013049 43 91 1.0 0.0 0.00 0.00 0.47 99 1012.3
20260510011838 44 91 1.0 0.0 0.00 0.00 0.47 99 1011.6
20260510011545 43 91 1.0 0.0 0.00 0.00 0.47 99 1012.5
20260510010338 44 91 1.0 0.0 0.00 0.00 0.47 99 1011.5
20260510010057 43 91 1.0 0.0 0.00 0.00 0.47 99 1012.3
20260510004855 44 91 2.0 0.0 0.00 0.00 0.47 99 1011.3
20260510004557 43 90 2.0 0.0 0.00 0.00 0.47 99 1012.0
20260510003354 44 101 2.0 0.0 0.00 0.00 0.47 99 1011.1
20260510003058 43 98 2.0 0.0 0.00 0.00 0.47 99 1011.9
20260510001851 44 113 2.0 0.0 0.00 0.00 0.47 99 1010.9
20260510001533 43 114 2.0 0.0 0.00 0.00 0.47 99 1011.7
20260510000351 43 114 2.0 0.0 0.00 0.00 0.47 99 1010.9
20260510000013 43 113 2.0 0.0 0.00 0.00 0.47 99 1011.6
20260509234519 43 95 2.0 0.0 0.00 0.00 0.47 99 1011.6
20260509233056 43 107 2.0 0.0 0.00 0.00 0.47 99 1011.5
20260509231848 44 136 0.0 0.0 0.00 0.00 0.47 99 1010.4
20260509231532 43 136 0.0 0.0 0.00 0.00 0.47 99 1011.3